星链-38020(STARLINK-38020)

导读

STARLINK-38020(NORAD ID:69713)是SpaceX星链低轨宽带通信星座的在轨组网卫星,由猎鹰9号火箭发射入轨,属星链V2 Mini批次卫星。该卫星运行于约550公里高度的近地轨道,轨道倾角约53度,配备相控阵天线与星间激光链路,支持高速低延迟宽带传输,主要为全球用户提供卫星互联网接入服务,同时参与星座组网补网,扩充星链网络覆盖容量。

基本信息
目录编号:
69713
目录名称:
STARLINK-38020
国际标识:
2026-147K
轨道中心:
EARTH
卫星名称:
星链-38020
卫星全名:
星链-38020(STARLINK-38020)
卫星状态:
在轨 (已飞行68 天)
发射日期:
2026-06-28 UTC
国别 :
美国 (US)
星等 :
--
轨道信息
数据来源 国际轨道数据
星历时间: 2026-09-04T00:05:43+0800
13小时前
查看轨道信息
半长轴: 6843.695km
偏心率: 0.0001039
轨道倾角: 97.283°
近地点辐角 122.402°
升交点赤经 283.254°
平近点角 237.732°
近地点: 464.846km
远地点: 466.27km
周期: 93.906分钟
每日圈数: 15.334402
详细信息
固有亮度:
5
最大亮度:
2.5
卫星平台:
Starlink V1.0
覆盖范围:
全球
运营商:
太空探索技术公司
运营商所在国:
美国
制造商(研发单位):
太空探索技术公司
制造商所在国:
美国
使用方式:
暂无
卫星简介
Starlink 计划是 SpaceX 推出的全球卫星互联网项目,通过发射低轨道卫星,为全球尤其是偏远地区提供高速、低延迟的互联网服务。自 2019 年起,Starlink 已部署数千颗卫星,旨在缩小全球数字鸿沟,推动互联网普及。该项目还为军事、航空等行业提供通信支持,带来广泛经济效益。
2D轨道图
3D轨道图
轨道高度分析图
轨道倾角分析图
轨道综合分析图
查看轨道综合分析图